Location: Les Salelles
(44.4192°N, 4.1044°E)
Time: 09:47:46
(UTC+00:00)

ATLAS 3B R/B - Pass Details

Date: 20 January 2021
Orbit: 1006 x 1189 km, 63.8° (Epoch: 26 February)

Event Time Altitude Azimuth Distance (km) Brightness Sun altitude
Rises 16:59:08 0° 322° (NW) 3,869 5.8 -4.5°
Reaches altitude 10° 17:01:44 10° 320° (NW) 2,936 5.2 -4.9°
Maximum altitude 17:08:42 73° 238° (WSW) 1,168 3.2 -6.0°
Drops below altitude 10° 17:15:57 10° 155° (SSE) 3,050 5.1 -7.2°
Sets 17:18:42 0° 153° (SSE) 4,027 5.7 -7.7°
